{"data":{"norad_id":50496,"epoch":"2026-05-25T02:22:42.200256Z","epoch_age_seconds":60499,"freshness":"FRESH","line1":"1 50496U 21132AD  26145.09909954  .00000035  00000+0  56199-4 0  9997","line2":"2 50496  87.9165 340.0518 0002159  82.4235 277.7143 13.18685791218577","mean_motion":13.18685791,"eccentricity":0.0002159,"inclination_deg":87.9165,"raan_deg":340.0518,"arg_perigee_deg":82.4235,"mean_anomaly_deg":277.7143,"bstar":5.6199e-5,"rev_number":21857,"period_min":109.19962964855,"perigee_km":1188.1100210028,"apogee_km":1191.3778319869,"semimajor_km":7567.8809264949,"source":"CELESTRAK","updated_at":"2026-05-25T13:38:22.534069Z"}}